Date String (YYYY-MM-DD hh:mm:ss) UTC,Instrument flags,absolute air pressure of the measurement (hPa),sample flow rate (lpm),inlet stack bypass flow (lpm),air temperature of the measurement (°C),ambient temperature measured by the external sensor (°C),aerosol sample conditioner tube jacket temperature (°C),OPC LED temperature (°C),internal box temperature (°C),relative humidity of the measurement (%),span deviation,mass concentration of particles derived from Lorenz-Mie calculation of OPC scattering (μg/m³),mass concentration of particles derived from Lorenz-Mie calculation of OPC scattering (μg/m³),mass concentration of particles derived from Lorenz-Mie calculation of OPC scattering (μg/m³)
DateTimeUTC,F1_M11,P_M11,Q1_M11,Q2_M11,T1_M11,T2_M11,T3_M11,T4_M11,T5_M11,U1_M11,ZSPAN_M11,X2_M11,X0_M11,X1_M11
2023-06-04 04:00:00,SystemResetWarning,0833.7,5.00,000.00,030.2,028.7,000.0,038.5,031.8,25.8,0000.0,0002.57,0003.51,0002.20
2023-06-04 04:01:00,SystemResetWarning,0833.8,4.99,000.00,030.2,028.7,000.0,038.6,031.8,26.1,0000.0,0002.54,0003.47,0002.19
2023-06-04 04:02:00,SystemResetWarning,0833.8,5.01,000.00,030.2,028.7,000.0,038.6,031.8,26.1,0000.0,0002.56,0003.64,0002.19
2023-06-04 04:03:00,SystemResetWarning,0833.8,5.01,000.00,030.2,028.7,000.0,038.6,031.8,25.9,0000.0,0002.55,0003.61,0002.20
2023-06-04 04:04:00,SystemResetWarning,0833.8,5.00,000.00,030.2,028.7,000.0,038.6,031.9,25.8,0000.0,0002.59,0003.75,0002.20
2023-06-04 04:05:00,SystemResetWarning,0833.8,4.98,000.00,030.2,028.7,000.0,038.6,031.9,26.3,0000.0,0002.58,0003.72,0002.20
2023-06-04 04:06:00,SystemResetWarning,0833.8,4.99,000.00,030.2,028.7,000.0,038.6,031.9,26.9,0000.0,0002.60,0003.72,0002.22
2023-06-04 04:07:00,SystemResetWarning,0833.7,5.00,000.00,030.2,028.7,000.0,038.6,031.9,26.5,0000.0,0002.61,0003.74,0002.23
2023-06-04 04:08:00,SystemResetWarning,0833.7,5.01,000.00,030.2,028.7,000.0,038.6,031.9,26.4,0000.0,0002.67,0003.91,0002.25
2023-06-04 04:09:00,SystemResetWarning,0833.7,5.01,000.00,030.2,028.7,000.0,038.6,031.9,26.3,0000.0,0002.71,0004.02,0002.25
2023-06-04 04:10:00,SystemResetWarning,0833.7,5.00,000.00,030.2,028.7,000.0,038.6,031.9,26.3,0000.0,0002.72,0003.93,0002.25
2023-06-04 04:11:00,SystemResetWarning,0833.7,4.99,000.00,030.2,028.7,000.0,038.6,031.9,26.8,0000.0,0002.70,0003.91,0002.24
2023-06-04 04:12:00,SystemResetWarning,0833.6,4.99,000.00,030.2,028.7,000.0,038.6,031.9,27.2,0000.0,0002.69,0003.97,0002.24
2023-06-04 04:13:00,SystemResetWarning,0833.6,5.01,000.00,030.2,028.7,000.0,038.6,031.9,27.2,0000.0,0002.72,0003.93,0002.24
2023-06-04 04:14:00,SystemResetWarning,0833.7,5.01,000.00,030.2,028.7,000.0,038.6,031.9,27.3,0000.0,0002.70,0003.89,0002.22
2023-06-04 04:15:00,SystemResetWarning,0833.7,4.98,000.00,030.2,028.7,000.0,038.6,031.9,27.3,0000.0,0002.63,0003.72,0002.21
2023-06-04 04:16:00,SystemResetWarning,0833.7,5.00,000.00,030.2,028.7,000.0,038.6,031.9,27.4,0000.0,0002.64,0003.74,0002.20
2023-06-04 04:17:00,SystemResetWarning,0833.6,5.01,000.00,030.2,028.7,000.0,038.6,031.9,27.4,0000.0,0002.67,0003.89,0002.20
2023-06-04 04:18:00,SystemResetWarning,0833.6,5.00,000.00,030.2,028.7,000.0,038.6,031.9,27.4,0000.0,0002.67,0003.92,0002.18
2023-06-04 04:19:00,SystemResetWarning,0833.7,4.99,000.00,030.2,028.7,000.0,038.6,031.9,27.3,0000.0,0002.63,0003.84,0002.16
2023-06-04 04:20:00,SystemResetWarning,0833.7,4.99,000.00,030.2,028.7,000.0,038.6,031.9,27.2,0000.0,0002.59,0003.75,0002.15
2023-06-04 04:21:00,SystemResetWarning,0833.7,4.99,000.00,030.2,028.7,000.0,038.6,031.9,27.3,0000.0,0002.59,0003.89,0002.15
2023-06-04 04:22:00,SystemResetWarning,0833.7,5.00,000.00,030.2,028.7,000.0,038.6,031.9,27.4,0000.0,0002.63,0004.43,0002.15
2023-06-04 04:23:00,SystemResetWarning,0833.8,5.01,000.00,030.3,028.7,000.0,038.7,031.9,27.3,0000.0,0002.65,0004.44,0002.15
2023-06-04 04:24:00,SystemResetWarning,0833.8,5.00,000.00,030.3,028.7,000.0,038.7,031.9,27.1,0000.0,0002.65,0004.60,0002.16
2023-06-04 04:25:00,SystemResetWarning,0833.8,5.01,000.00,030.3,028.7,000.0,038.7,031.9,27.1,0000.0,0002.69,0005.58,0002.16
2023-06-04 04:26:00,SystemResetWarning,0833.8,5.00,000.00,030.3,028.7,000.0,038.7,031.9,27.0,0000.0,0002.67,0005.53,0002.16
2023-06-04 04:27:00,SystemResetWarning,0833.8,5.00,000.00,030.3,028.7,000.0,038.7,031.9,26.9,0000.0,0002.66,0005.50,0002.16
2023-06-04 04:28:00,SystemResetWarning,0833.7,5.00,000.00,030.3,028.7,000.0,038.7,031.9,27.0,0000.0,0002.63,0005.43,0002.15
2023-06-04 04:29:00,SystemResetWarning,0833.7,5.00,000.00,030.3,028.7,000.0,038.7,031.9,27.1,0000.0,0002.58,0005.31,0002.15
2023-06-04 04:30:00,SystemResetWarning,0833.7,5.00,000.00,030.3,028.7,000.0,038.7,031.9,27.1,0000.0,0002.59,0005.37,0002.15
2023-06-04 04:31:00,SystemResetWarning,0833.7,4.99,000.00,030.3,028.7,000.0,038.7,031.9,26.9,0000.0,0002.64,0005.50,0002.15
2023-06-04 04:32:00,SystemResetWarning,0833.6,5.00,000.00,030.3,028.7,000.0,038.7,031.9,26.9,0000.0,0002.67,0006.00,0002.16
2023-06-04 04:33:00,SystemResetWarning,0833.7,5.00,000.00,030.3,028.7,000.0,038.7,031.9,26.7,0000.0,0002.67,0005.78,0002.17
2023-06-04 04:34:00,SystemResetWarning,0833.7,5.00,000.00,030.3,028.7,000.0,038.7,031.9,26.5,0000.0,0002.65,0005.76,0002.17
2023-06-04 04:35:00,SystemResetWarning,0833.7,5.00,000.00,030.3,028.7,000.0,038.7,031.9,26.3,0000.0,0002.62,0005.61,0002.17
2023-06-04 04:36:00,SystemResetWarning,0833.6,5.00,000.00,030.3,028.7,000.0,038.7,031.9,25.9,0000.0,0002.59,0004.56,0002.17
2023-06-04 04:37:00,SystemResetWarning,0833.7,5.00,000.00,030.3,028.8,000.0,038.7,031.9,25.9,0000.0,0002.60,0004.55,0002.19
2023-06-04 04:38:00,SystemResetWarning,0833.6,5.00,000.00,030.3,028.7,000.0,038.7,031.9,26.1,0000.0,0002.62,0004.56,0002.20
2023-06-04 04:39:00,SystemResetWarning,0833.7,5.00,000.00,030.3,028.7,000.0,038.7,031.9,26.4,0000.0,0002.67,0004.66,0002.22
2023-06-04 04:40:00,SystemResetWarning,0833.7,4.99,000.00,030.3,028.7,000.0,038.7,031.9,26.2,0000.0,0002.70,0004.72,0002.23
2023-06-04 04:41:00,SystemResetWarning,0833.7,5.00,000.00,030.3,028.7,000.0,038.7,031.9,26.3,0000.0,0002.69,0004.62,0002.23
2023-06-04 04:42:00,SystemResetWarning,0833.7,5.00,000.00,030.3,028.7,000.0,038.7,031.9,26.5,0000.0,0002.66,0004.52,0002.23
2023-06-04 04:43:00,SystemResetWarning,0833.7,5.01,000.00,030.3,028.7,000.0,038.7,031.9,26.8,0000.0,0002.63,0003.97,0002.23
2023-06-04 04:44:00,SystemResetWarning,0833.8,5.00,000.00,030.3,028.8,000.0,038.7,031.9,26.8,0000.0,0002.61,0003.58,0002.24
2023-06-04 04:45:00,SystemResetWarning,0833.8,4.99,000.00,030.3,028.8,000.0,038.7,031.9,26.6,0000.0,0002.61,0003.58,0002.23
2023-06-04 04:46:00,SystemResetWarning,0833.7,4.99,000.00,030.3,028.8,000.0,038.7,031.9,26.4,0000.0,0002.63,0003.69,0002.23
2023-06-04 04:47:00,SystemResetWarning,0833.8,4.99,000.00,030.3,028.8,000.0,038.7,031.9,26.4,0000.0,0002.62,0004.22,0002.22
2023-06-04 04:48:00,SystemResetWarning,0833.8,4.99,000.00,030.3,028.8,000.0,038.7,031.9,26.3,0000.0,0002.64,0005.12,0002.22
2023-06-04 04:49:00,SystemResetWarning,0833.7,4.99,000.00,030.3,028.8,000.0,038.7,031.9,26.4,0000.0,0002.62,0005.09,0002.22
2023-06-04 04:50:00,SystemResetWarning,0833.8,5.00,000.00,030.4,028.8,000.0,038.7,031.9,26.1,0000.0,0002.57,0004.95,0002.21
2023-06-04 04:51:00,SystemResetWarning,0833.8,5.01,000.00,030.3,028.8,000.0,038.7,031.9,25.8,0000.0,0002.59,0004.94,0002.23
2023-06-04 04:52:00,SystemResetWarning,0833.7,5.00,000.00,030.3,028.8,000.0,038.7,032.0,25.9,0000.0,0002.62,0004.99,0002.26
2023-06-04 04:53:00,SystemResetWarning,0833.8,4.99,000.00,030.4,028.8,000.0,038.7,032.0,25.9,0000.0,0002.59,0005.00,0002.25
2023-06-04 04:54:00,SystemResetWarning,0833.8,4.99,000.00,030.4,028.8,000.0,038.7,032.0,26.1,0000.0,0002.58,0005.00,0002.25
2023-06-04 04:55:00,SystemResetWarning,0833.8,5.01,000.00,030.4,028.8,000.0,038.7,032.0,26.4,0000.0,0002.56,0004.95,0002.24
2023-06-04 04:56:00,SystemResetWarning,0833.8,5.01,000.00,030.4,028.8,000.0,038.7,032.0,25.9,0000.0,0002.58,0004.96,0002.27
2023-06-04 04:57:00,SystemResetWarning,0833.8,4.99,000.00,030.4,028.8,000.0,038.8,032.0,25.7,0000.0,0002.62,0004.92,0002.29
2023-06-04 04:58:00,SystemResetWarning,0833.8,4.99,000.00,030.4,028.8,000.0,038.8,032.0,25.7,0000.0,0002.64,0004.77,0002.30
2023-06-04 04:59:00,SystemResetWarning,0833.8,4.99,000.00,030.4,028.8,000.0,038.8,032.0,25.7,0000.0,0002.66,0003.64,0002.32
